Flag for U.S.A. Weather past 2 weeks in Bridgewater, Massachusetts, U.S.A.

Now
6 °F

Clear.


Feels Like: 6 °F
Forecast: 1 / 29 °F
Wind: No wind

Location: Taunton Municipal Airport

Current Time: Feb 28, 2015 at 10:13:02 PM

Latest Report: Feb 28, 2015 at 9:52 PM


Visibility: 10 mi

Pressure: 30.71 "Hg

Humidity: 83%

Dew point: 2 °F

Location of BridgewaterLocation

Historic Weather in Bridgewater — Graph

°F

Bridgewater temperature yesterday

Maximum temperature yesterday: 29 °F (at 1:52 PM)
Minimum temperature yesterday: -2 °F (at 6:52 AM)
Average temperature yesterday: 13 °F

Past Weeks' High & Low Weather Summary

 TemperatureHumidityPressure
High38 °F (Feb 21, 10:52 PM)100% (Feb 27, 7:52 AM)30.75 "Hg (Feb 27, 7:52 AM)
Low-16 °F (Feb 21, 6:52 AM)26% (Feb 28, 3:52 PM)29.26 "Hg (Feb 15, 4:52 AM)
Average17 °F64%30.02 "Hg
* Reported Feb 13 8:52 PM — Feb 28 8:52 PM, Bridgewater, Weather by CustomWeather, © 2015

Note: Actual official high and low records may vary slightly from our data, if they occured in-between our weather recording intervals... More about our weather records

Advertising

Bridgewater weather history for previous 24 hours

 ConditionsComfort  
Time TempWeatherWind HumidityBarometerVisibility
8:52 PM
Sat, Feb 28
9 °FClear.No wind80%30.71 "Hg10 mi
7:52 PM13 °FClear.No wind70%30.71 "Hg10 mi
6:52 PM23 °FClear.5 mph50%30.71 "Hg10 mi
5:52 PM26 °FClear.6 mph40%30.69 "Hg10 mi
4:52 PM29 °FSunny.8 mph27%30.68 "Hg10 mi
3:52 PM30 °FSunny.7 mph26%30.68 "Hg10 mi
2:52 PM29 °FSunny.3 mph27%30.68 "Hg10 mi
1:52 PM29 °FSunny.3 mph27%30.70 "Hg10 mi
12:52 PM28 °FSunny.7 mph28%30.71 "Hg10 mi
11:52 AM25 °FSunny.5 mph32%30.74 "Hg10 mi
10:52 AM23 °FSunny.No wind35%30.73 "Hg10 mi
9:52 AM22 °FSunny.N/A35%30.74 "Hg10 mi
8:52 AM16 °FSunny.5 mph53%30.75 "Hg10 mi
7:52 AM2 °FSunny.No wind92%30.72 "Hg10 mi
6:52 AM-9 °FSunny.No wind78%30.70 "Hg9 mi
5:52 AM-9 °FClear.No wind70%30.68 "Hg10 mi
4:52 AM-9 °FClear.No wind70%30.64 "Hg10 mi
3:52 AM-8 °FClear.No wind78%30.61 "Hg10 mi
2:52 AM-6 °FClear.No windN/A30.60 "Hg10 mi
1:52 AM-3 °FClear.No wind78%30.58 "Hg10 mi
12:52 AM-3 °FClear.No wind78%30.56 "Hg10 mi
11:52 PM
Fri, Feb 27
0 °FClear.No wind79%30.54 "Hg10 mi
10:52 PM2 °FClear.No wind83%30.51 "Hg10 mi
Weather by CustomWeather, © 2015

See weather overviewHow to use our weather pages